www.pogodaiklimat.ru

Погода и климат >> Архив погоды >> Индия >> Джаркханд >> Джамшедпур


ПОГОДА в Джамшедпуре

  • Прогноз погоды в Джамшедпуре
  • Монитор погоды в Джамшедпуре

АРХИВ ПОГОДЫ в Джамшедпуре

Время (UTC), дата Ветер
(напр.,м/с)
 
Видим.   Явления Облачность Т
(С)
Тd
(С)
f
(%)
Тe
(С)
Тes
(С)
Комфортность P
(гПа)
Po
(гПа)
Тmin
(С)
Tmax
(С)
R
(мм)
R24
(мм)
S
(см)
00 15.09 штиль 0 2000 м дымка 9/6 540 м
[Sc Ac trans]
+26.2 +25.3 95 +38 +38 очень
душно
1004.9 988.7
03 15.09 штиль 0 2000 м мгла 6/4 540 м
[Sc Ac trans]
+30.4 +25.3 74 +44 +50 опасность
перегрева
1006.1 990.1 +27.0
06 15.09 З 2 2000 м мгла 6/5 600 м
[Sc diur, vesp Ac trans]
+34.4 +24.2 55 +46 +55 опасность
перегрева
1004.6 988.9
09 15.09 ЮЗ 2 2000 м мгла 8/6 540 м
[Cb calv Ac trans]
+35.2 +23.1 50 +46 +49 опасность
перегрева
1001.5 985.9
12 15.09 В 2 2000 м мгла 6/5 540 м
[Cu Sc Ac trans]
+31.4 +26.7 76 +48 +48 опасность
перегрева
1002.0 986.2 +35.4
15 15.09 В 2 2000 м мгла 6/4 600 м
[Sc Ac trans]
+29.0 +25.9 83 +43 +43 опасность
перегрева
1004.1 988.1
18 15.09 штиль 0 2000 м мгла 6/4 600 м
[Sc Ac trans]
+28.4 +25.3 83 +41 +41 опасность
перегрева
1006.0 989.9
21 15.09 штиль 0 2000 м мгла 6/4 600 м
[Sc Ac trans]
+27.8 +26.4 92 +42 +42 опасность
перегрева
1005.8 989.7
00 16.09 штиль 0 1000 м мгла 8/6 540 м
[Sc Ac trans]
+26.6 +25.5 94 +39 +39 очень
душно
1003.5 987.4
03 16.09 ЮЗ 1 2000 м мгла 6/4 600 м
[Sc Ac trans]
+30.0 +25.2 76 +44 +48 опасность
перегрева
1004.9 988.9 +26.0
06 16.09 ЮВ 2 2000 м мгла 6/5 600 м
[Sc diur, vesp Ac trans]
+33.2 +26.6 68 +50 +58 опасность
перегрева
1003.8 988.0
09 16.09 В 1 2000 м мгла 9/6 540 м
[Cb calv Ac trans]
+32.4 +26.3 70 +49 +51 опасность
перегрева
1000.5 984.7
12 16.09 З 2 2000 м гроза, ливневой дождь 9/6 450 м
[Cb calv Ac trans]
+30.4 +26.2 78 +46 +46 опасность
перегрева
1001.8 985.9 +34.1 0.2
15 16.09 штиль 0 2000 м мгла {гроза, дождь} 9/5 540 м
[Sc Ac trans]
+27.0 +25.0 89 +39 +39 очень
душно
1003.6 987.5 0.2
18 16.09 штиль 0 2000 м мгла {гроза, дождь} 9/5 540 м
[Sc Ac trans]
+27.0 +25.0 89 +39 +39 очень
душно
1004.1 988.0 0.2
21 16.09 штиль 0 2000 м мгла 8/4 540 м
[Sc Ac trans]
+26.8 +25.1 90 +39 +39 очень
душно
1003.6 987.5 0.2
00 17.09 штиль 0 2000 м мгла 8/5 540 м
[Sc Ac trans]
+26.8 +25.1 90 +39 +39 очень
душно
1003.9 987.8 0.2
03 17.09 ЮЗ 2 2000 м мгла 8/5 450 м
[Sc diur, vesp Ac trans]
+28.8 +24.5 78 +41 +44 опасность
перегрева
1005.8 989.8 +26.0 0.2
06 17.09 штиль 0 4000 м мгла 6/5 540 м
[Sc Ac trans]
+31.4 +25.8 72 +46 +58 опасность
перегрева
1005.6 989.7 1
09 17.09 В 3 4000 м мгла 6/5 600 м
[Cb cap Ac trans]
+32.0 +24.6 65 +45 +49 опасность
перегрева
1002.5 986.7 1
12 17.09 ЮВ 3 4000 м мгла 8/5 540 м
[Sc diur, vesp Ac trans]
+31.0 +24.7 69 +44 +44 опасность
перегрева
1003.5 987.6 +33.2 1
15 17.09 Ю 3 2000 м мгла 6/3 600 м
[Sc Ac trans]
+29.0 +23.2 71 +39 +39 очень
душно
1006.1 990.1 1
18 17.09 штиль 0 2000 м мгла 6/3 600 м
[Sc Ac trans]
+28.2 +23.9 78 +39 +39 очень
душно
1007.0 990.9 1
21 17.09 штиль 0 2000 м дымка 6/3 600 м
[Sc Ac trans]
+27.6 +24.1 81 +38 +38 очень
душно
1006.3 990.2 1
00 18.09 штиль 0 2000 м дымка 8/4 540 м
[Sc Ac trans]
+27.0 +24.7 87 +38 +38 очень
душно
1006.9 990.8 1
03 18.09 В 3 2000 м мгла 8/5 540 м
[Cb cap Ac trans]
+29.6 +25.1 77 +43 +45 опасность
перегрева
1008.9 992.9 +25.4 1
06 18.09 В 4 4000 м мгла 8/6 600 м
[Sc diur, vesp Ac trans]
+32.4 +23.8 61
09 18.09 ЮЗ 3 2000 м мгла {дождь} 9/6 450 м
[Cb cap Ac trans]
+28.4 +26.2 88 +43 +45 опасность
перегрева
1006.4 990.3 1
12 18.09 штиль 0 4000 м мгла {дождь} 9/6 540 м
[Cu Sc Ac trans]
+29.0 +25.9 83 +43 +43 опасность
перегрева
1006.1 990.1 +33.2 4
15 18.09 В 2 2000 м мгла 8/5 600 м
[Sc Ac trans]
+27.6 +25.0 86 +40 +40 очень
душно
1008.8 992.7 4
18 18.09 штиль 0 2000 м мгла 8/5 600 м
[Sc Ac trans]
+27.0 +25.0 89 +39 +39 очень
душно
1009.0 992.8 4
21 18.09 штиль 2000 м мгла 8/5 600 м
[Sc Ac trans]
+26.4 +24.7 90 +37 +37 очень
душно
1009.1 992.9 4
00 19.09 штиль 0 2000 м мгла 9/6 540 м
[Sc Ac trans]
+26.0 +24.6 92 +37 +37 очень
душно
1009.4 993.2 4
03 19.09 В 3 2000 м мгла 8/4 600 м
[Sc Ac trans]
+30.0 +25.2 76 +44 +46 опасность
перегрева
1009.8 993.8 +25.8 4
06 19.09 В 3 4000 м мгла 9/6 450 м
[Sc diur, vesp Ac trans]
+31.0 +24.1 67 +43 +46 опасность
перегрева
1010.3 994.3
09 19.09 В 2 4000 м мгла 9/6 450 м
[Cb cap Ac trans]
+31.6 +25.4 70 +46 +48 опасность
перегрева
1006.1 990.2
12 19.09 штиль 0 4000 м мгла {дождь} 8/5 450 м
[Sc diur, vesp Ac trans]
+29.4 +26.0 82 +44 +44 опасность
перегрева
1006.5 990.5 +33.0 0.6
15 19.09 ЮВ 2 2000 м мгла 6/5 540 м
[Sc Ac trans]
+28.0 +25.7 87 +41 +41 опасность
перегрева
1009.0 992.9 0.6
18 19.09 штиль 0 2000 м мгла 8/5 600 м
[Sc Ac trans]
+27.4 +25.4 89 +40 +40 очень
душно
1010.2 994.0 0.6
21 19.09 штиль 0 1000 м мгла 8/5 600 м
[Sc Ac trans]
+26.6 +24.9 90 +38 +38 очень
душно
1009.4 993.2 0.6
00 20.09 штиль 0 1000 м дымка 9/6 450 м
[Sc Ac trans]
+25.6 +24.4 93 +36 +36 очень
душно
1009.7 993.4 0.6
03 20.09 З 2 2000 м мгла 6/6 540 м
[Cu Sc]
+29.6 +24.8 75 +42 +46 опасность
перегрева
1009.9 993.8 +25.4 0.6
06 20.09 З 3 4000 м мгла 6/5 600 м
[Sc diur, vesp Ac trans]
+32.6 +23.4 58 +43 +50 опасность
перегрева
1008.6 992.7
09 20.09 В 1 4000 м мгла 6/5 540 м
[Sc diur, vesp Ac trans]
+34.0 +24.4 57 +46 +52 опасность
перегрева
1005.3 989.5
12 20.09 В 2 4000 м мгла 8/5 540 м
[Sc diur, vesp Ac trans]
+31.2 +24.3 67 +43 +43 опасность
перегрева
1004.8 988.9 +34.6
15 20.09 штиль 0 2000 м мгла 8/5 540 м
[Sc Ac trans]
+29.0 +25.3 80 +42 +42 опасность
перегрева
1007.2 991.2
18 20.09 штиль 0 2000 м мгла 6/4 540 м
[Sc Ac trans]
+28.2 +25.4 85 +41 +41 опасность
перегрева
1008.1 992.0
21 20.09 штиль 0 2000 м мгла 6/4 540 м
[Sc Ac trans]
+27.0 +25.0 89 +39 +39 очень
душно
1007.5 991.3
00 21.09 штиль 0 1000 м дымка 8/5 540 м
[Sc Ac trans]
+26.2 +24.8 92 +37 +37 очень
душно
1007.9 991.7
03 21.09 З 2 2000 м мгла 5/4 600 м
[Sc Ac trans]
+30.0 +24.9 74 +43 +48 опасность
перегрева
1008.6 992.6 +25.8
06 21.09 ЮЗ 2 4000 м мгла 6/5 600 м
[Sc diur, vesp Ac trans]
+33.2 +23.1 55 +43 +52 опасность
перегрева
1007.5 991.7
09 21.09 З 3 4000 м мгла 6/5 600 м
[Sc diur, vesp Ac trans]
+34.6 +22.4 49 +44 +47 опасность
перегрева
1003.4 987.7
12 21.09 штиль 0 2000 м мгла {дождь} 6/5 600 м
[Cu Sc Ac trans]
+29.0 +25.3 80 +42 +42 опасность
перегрева
1004.6 988.6 +35.0 23
15 21.09 В 2 2000 м мгла 6/4 600 м
[Sc Ac trans]
+27.6 +24.7 84 +39 +39 очень
душно
1006.5 990.4 23
18 21.09 штиль 0 2000 м мгла 6/4 600 м
[Sc Ac trans]
+27.2 +24.6 86 +39 +39 очень
душно
1007.7 991.5 23
21 21.09 штиль 0 2000 м мгла 6/4 600 м
[Sc Ac trans]
+26.8 +24.8 89 +38 +38 очень
душно
1007.0 990.8 23

 

Местоположение метеостанции Джамшедпур (Джаркханд, Индия): широта 22.82 долгота 86.18 высота над уровнем моря 142 м.

В архиве по умолчанию представлена погода в Джамшедпуре за последнюю неделю. Архивные данные за месяц целиком и за предыдущие месяцы, начиная с января 2011 года, Вы можете получить, выбрав интересующий диапазон дат из раскрывающегося списка и нажав кнопку "Ввод!".


*Определитесь, кто Вы:
робот инопланетянин человек

Внимание! Время в таблицах - всемирное. Для получения местного времени необходимо прибавить поправку, которая равна 5.5 ч.

Смотрите также архив погоды в соседних городах и на ближайших метеорологических станциях:

Погода в Чайбасе (Джаркханд, Индия) (48 км)
Погода в Пурулии (Западная Бенгалия, Индия) (62 км)
Погода в Банкуре (Западная Бенгалия, Индия) (101 км)
Погода в Ранчи (Джаркханд, Индия) (104 км)
Погода в Барипаде (Орисса, Индия) (116 км)
Погода в Миднапуре (Западная Бенгалия, Индия) (125 км)
Погода в Асансоле (Западная Бенгалия, Индия) (126 км)
Погода в Панагаре (Западная Бенгалия, Индия) (147 км)
Погода в Кендуджхаре (Орисса, Индия) (150 км)
Погода в Баласоре (Орисса, Индия) (164 км)

Пояснения к столбцам:

Ветер - указаны скорость ветра в м/с - средняя за 10 мин, порывы в срок и между сроками (в фигурных скобках) и направление, откуда дует ветер: С - северный, СВ - северо-восточный, В - восточный, ЮВ - юго-восточный, Ю - южный, ЮЗ - юго-западный, З - западный, СЗ - северо-западный.
Видимость - горизонтальная дальность видимости в метрах или километрах. При видимости от 1 до 10 км при отсутствии осадков обычно наблюдается дымка, при ухудшении видимости до 1 км и менее - туман. В сухую погоду видимость может ухудшаться дымом, пылью или мглою.
Явления - указаны атмосферные явления, наблюдавшиеся в срок или в последний час перед сроком; фигурными скобками обозначены явления, наблюдавшиеся между сроками (за 1-3 часа до срока); квадратными скобками обозначены град или гололедные отложения с указанием их диаметра в мм.
Облачность - указаны через наклонную черту общая и нижняя облачность в баллах и высота нижней границы облаков в метрах; квадратными скобками обозначены формы облаков: Ci - перистые, Cs - перисто-слоистые, Cc - перисто-кучевые, Ac - высококучевые, As - высокослоистые, Sc - слоисто-кучевые, Ns - слоисто-дождевые, Cu - кучевые, Cb - кучево-дождевые. Подробнее классификацию облаков см. в Атласе облаков (PDF).
T - Температура воздуха - температура, измеренная на высоте 2 м над землей.
Td - Температура точки росы - температура, при понижении до которой содержащийся в воздухе водяной пар достигнет насыщения.
f - Относительная влажность воздуха - влажноcть воздуха, измеренная на высоте 2 м над землей.
Te - Эффективная температура - температура, которую ощущает одетый по сезону человек в тени. Характеристика душности погоды. При расчете учитывается влияние влажности воздуха и скорости ветра на теплоощущения человека.
Tes - Эффективная температура на солнце - температура, которую ощущает человек, с поправкой на солнечный нагрев. Характеристика знойности погоды. Зависит от высоты солнца над горизонтом, облачности и скорости ветра. Ночью, в пасмурную погоду, а также при ветре 12 м/с и более поправка равна нулю.
P - Атмосферное давление - приведенное к уровню моря атмосферное давление.
Po - Атмосферное давление - измеренное на уровне метеостанции атмосферное давление.
Tmin - Минимальная температура - минимум температуры воздуха на высоте 2 м над землей.
Tmax - Максимальная температура - максимум температуры воздуха на высоте 2 м над землей.
R - Количество осадков - Количество выпавших осадков за период времени, мм. При наведении курсора мыши на число - период времени, за который выпало указанное количество осадков.
R24 - Количество осадков - Количество выпавших осадков за 24 часа, мм.
S - Снежный покров - Высота снежного покрова, см. При наведении курсора мыши на число - состояние снежного покрова и степень покрытия местности в баллах.